IGO1156 VIDP-VNKT

Flight info

Callsign IGO1156
Flight time 1h 4m
Altitude 35000
Route ALI G452 LKN G598 SMR SMR
Aircraft A320/M-SDE3FGHIRWY/LB1

Departure

Time 2025-12-31 06:01
Airport Indira Gandhi International Airport (VIDP)

Arrival

Time 2025-12-31 07:05
Airport Tribhuvan International Airport (VNKT)
Time Latitude Longitude Altitude Speed Heading
2025-12-31 05:30 28.55163 77.08081 751 ft 0 kts 147°
2025-12-31 05:47 28.55165 77.08080 751 ft 0 kts 147°
2025-12-31 05:48 28.55181 77.08069 746 ft 2 kts 147°
2025-12-31 05:48 28.55192 77.08060 751 ft 2 kts 147°
2025-12-31 05:49 28.55215 77.08043 748 ft 2 kts 147°
2025-12-31 05:49 28.55238 77.08031 748 ft 1 kts 196°
2025-12-31 05:50 28.55253 77.08042 747 ft 0 kts 239°
2025-12-31 05:55 28.55241 77.08019 749 ft 6 kts 240°
2025-12-31 05:55 28.55168 77.07904 749 ft 12 kts 202°
2025-12-31 05:56 28.55138 77.07725 750 ft 16 kts 284°
2025-12-31 05:56 28.55199 77.07456 751 ft 8 kts 285°
2025-12-31 05:57 28.55227 77.07278 747 ft 14 kts 240°
2025-12-31 05:57 28.55004 77.07214 749 ft 19 kts 192°
2025-12-31 05:58 28.54920 77.07250 749 ft 0 kts 102°
2025-12-31 05:59 28.54913 77.07288 751 ft 20 kts 101°
2025-12-31 05:59 28.54820 77.07719 752 ft 89 kts 104°
2025-12-31 05:59 28.54364 77.09742 1209 ft 149 kts 105°
2025-12-31 06:00 28.53351 77.11749 2172 ft 165 kts 165°
2025-12-31 06:00 28.50920 77.12037 2718 ft 196 kts 174°
2025-12-31 06:01 28.47932 77.12447 3405 ft 233 kts 173°
2025-12-31 06:01 28.44619 77.12926 4617 ft 250 kts 174°
2025-12-31 06:02 28.39055 77.13740 6622 ft 278 kts 174°
2025-12-31 06:03 28.35523 77.14266 7012 ft 279 kts 174°
2025-12-31 06:03 28.32592 77.14706 7036 ft 278 kts 174°
2025-12-31 06:04 28.29008 77.16339 7043 ft 282 kts 139°
2025-12-31 06:04 28.26945 77.20136 8421 ft 288 kts 117°
2025-12-31 06:05 28.25128 77.24235 9829 ft 294 kts 119°
2025-12-31 06:05 28.23222 77.28453 10110 ft 317 kts 119°
2025-12-31 06:06 28.19964 77.35693 10981 ft 365 kts 118°
2025-12-31 06:06 28.18809 77.38280 11566 ft 370 kts 118°
2025-12-31 06:07 28.16466 77.43539 12813 ft 376 kts 119°
2025-12-31 06:07 28.14098 77.48845 13980 ft 383 kts 119°
2025-12-31 06:08 28.11641 77.54323 14965 ft 391 kts 119°
2025-12-31 06:08 28.09166 77.59841 15902 ft 400 kts 120°
2025-12-31 06:09 28.06620 77.65514 16846 ft 408 kts 120°
2025-12-31 06:09 28.04004 77.71309 17792 ft 417 kts 120°
2025-12-31 06:10 28.01334 77.77216 18691 ft 426 kts 120°
2025-12-31 06:10 27.98616 77.83247 19525 ft 434 kts 121°
2025-12-31 06:11 27.94426 77.92506 20745 ft 447 kts 121°
2025-12-31 06:11 27.93002 77.95654 21140 ft 450 kts 121°
2025-12-31 06:12 27.90122 78.02010 21877 ft 458 kts 122°
2025-12-31 06:12 27.87188 78.08467 22604 ft 465 kts 122°
2025-12-31 06:13 27.84207 78.15017 23294 ft 472 kts 122°
2025-12-31 06:13 27.82705 78.18336 23633 ft 476 kts 121°
2025-12-31 06:14 27.77403 78.32359 24607 ft 496 kts 116°
2025-12-31 06:15 27.74786 78.39646 25081 ft 504 kts 117°
2025-12-31 06:17 27.63612 78.69118 27242 ft 530 kts 119°
2025-12-31 06:19 27.51623 79.00644 29534 ft 548 kts 120°
2025-12-31 06:21 27.39400 79.32504 31726 ft 555 kts 120°
2025-12-31 06:23 27.26941 79.64227 34134 ft 553 kts 120°
2025-12-31 06:24 27.15774 79.91903 35048 ft 566 kts 120°
2025-12-31 06:27 27.01098 80.28040 35050 ft 566 kts 120°
2025-12-31 06:28 26.89691 80.55955 35059 ft 547 kts 120°
2025-12-31 06:31 26.76823 80.91179 35081 ft 552 kts 96°
2025-12-31 06:32 26.79214 81.19658 34005 ft 559 kts 80°
2025-12-31 06:35 26.83434 81.58814 33054 ft 564 kts 80°
2025-12-31 06:36 26.86662 81.89355 33057 ft 564 kts 80°
2025-12-31 06:39 26.90718 82.28672 33059 ft 564 kts 81°
2025-12-31 06:40 26.93845 82.59865 33058 ft 580 kts 81°
2025-12-31 06:42 26.97374 82.95843 33058 ft 580 kts 81°
2025-12-31 06:44 27.01018 83.31776 33063 ft 580 kts 80°
2025-12-31 06:46 27.04618 83.67913 32974 ft 581 kts 80°
2025-12-31 06:49 27.08513 84.08216 28906 ft 563 kts 81°
2025-12-31 06:51 27.11558 84.40567 25140 ft 480 kts 82°
2025-12-31 06:52 27.12918 84.55212 24344 ft 455 kts 83°
2025-12-31 06:52 27.13545 84.62132 23141 ft 436 kts 83°
2025-12-31 06:53 27.14141 84.68746 21845 ft 421 kts 83°
2025-12-31 06:53 27.14413 84.71997 21170 ft 415 kts 84°
2025-12-31 06:53 27.14901 84.78356 19707 ft 402 kts 84°
2025-12-31 06:54 27.15590 84.87524 17528 ft 384 kts 84°
2025-12-31 06:55 27.16052 84.93416 16003 ft 373 kts 82°
2025-12-31 06:55 27.17436 84.98890 15125 ft 361 kts 62°
2025-12-31 06:56 27.20150 85.03575 14615 ft 356 kts 48°
2025-12-31 06:56 27.23189 85.07949 14048 ft 354 kts 48°
2025-12-31 06:56 27.24721 85.10158 13727 ft 362 kts 48°
2025-12-31 06:57 27.27811 85.14621 12958 ft 360 kts 48°
2025-12-31 06:57 27.31322 85.18442 12196 ft 345 kts 24°
2025-12-31 06:58 27.37823 85.21486 11420 ft 325 kts 17°
2025-12-31 06:59 27.41944 85.23177 10957 ft 299 kts
2025-12-31 06:59 27.45858 85.24152 10136 ft 282 kts
2025-12-31 07:00 27.49482 85.24120 8868 ft 248 kts 342°
2025-12-31 07:00 27.51135 85.23679 8281 ft 242 kts 351°
2025-12-31 07:00 27.54321 85.24096 7500 ft 217 kts 20°
2025-12-31 07:01 27.56676 85.25755 7065 ft 198 kts 40°
2025-12-31 07:01 27.58754 85.27868 6553 ft 201 kts 50°
2025-12-31 07:02 27.60309 85.30415 6050 ft 183 kts 51°
2025-12-31 07:02 27.62055 85.32219 5705 ft 168 kts 35°
2025-12-31 07:03 27.65222 85.33893 5071 ft 167 kts 22°
2025-12-31 07:04 27.67383 85.34874 4665 ft 167 kts 22°
2025-12-31 07:04 27.68440 85.35357 4437 ft 165 kts 22°
2025-12-31 07:04 27.70052 85.36098 4395 ft 39 kts 22°
2025-12-31 07:05 27.70185 85.36034 4398 ft 10 kts 200°
2025-12-31 07:05 27.70161 85.36024 4397 ft 0 kts 201°
2025-12-31 07:06 27.70040 85.35939 4397 ft 4 kts 294°
2025-12-31 07:07 27.70066 85.35881 4397 ft 0 kts 291°